Lexington Weather

Lexington, Massachusetts, USA

30°F
4/1/2020 3:09am 
  • Lexington Conditions: Clear
  • Temperature: 29.5°F / -1.4°CColder 0.5°F than last hour.
  • Dew Point: 27.5°FDecreased 0.5°Fsince last hour.
  • Relative Humidity: 92
  • Wind: Calm, 10-min avg: Calm, gust: 2 mph
  • Barometer: 29.88 in Steady
  • Visibility: 10 miles
  • Snow Today: 0.0 in
  •   

Regional Weather Roundup
for Boston / Norton, MA

        
000
ASUS41 KBOX 010204
RWRBOX

REGIONAL WEATHER ROUNDUP
NATIONAL WEATHER SERVICE BOSTON/NORTON MA
1000 PM EDT TUE MAR 31 2020

NOTE:  "FAIR" INDICATES FEW OR NO CLOUDS BELOW 12,000 FEET WITH NO 
SIGNIFICANT WEATHER AND/OR OBSTRUCTIONS TO VISIBILITY.

MAZALL-010300-
EASTERN MASSACHUSETTS
  
CITY           SKY/WX    TMP DP  RH WIND       PRES   REMARKS
BOSTON         FAIR      34  27  75 NE7       30.00F WCI  28          
BEVERLY        FAIR      30  26  85 NW3       29.99F                  
LAWRENCE       FAIR      31  27  85 N3        30.02F                  
BEDFORD        FAIR      31  25  78 CALM      30.00F                  
BLUE HILL        N/A     31  26  82 NE8       29.96F WCI  23          
NORWOOD        FAIR      32  26  78 CALM      30.00F                  
MARSHFIELD     FAIR      37  30  75 NE7       29.99F                  
PLYMOUTH       FAIR      34  28  79 NE6       29.97F WCI  29          
TAUNTON        FAIR      28  25  88 CALM      29.99F                  
NEW BEDFORD    FAIR      30  28  92 CALM      29.98F                  
$$

MAZALL-010300-
CAPE COD AND THE ISLANDS
  
CITY           SKY/WX    TMP DP  RH WIND       PRES   REMARKS
FALMOUTH       CLEAR     32  27  80 NE7       29.98F WCI  26          
HYANNIS        FAIR      34  26  72 CALM      29.96F                  
CHATHAM        FAIR      36  28  73 NE8       29.98F WCI  30          
PROVINCETOWN   CLOUDY    36  30  79 NE9       29.99F WCI  29          
NANTUCKET      CLOUDY    37  28  70 NE13      29.96F WCI  29          
MARTHAS VNYRD  FAIR      35  27  72 NE12      29.98S WCI  27          
$$
 
MAZALL-010300-
CENTRAL AND WESTERN MASSACHUSETTS
  
CITY           SKY/WX    TMP DP  RH WIND       PRES   REMARKS
WORCESTER      FAIR      32  26  78 E7        29.96S WCI  26          
FITCHBURG      FAIR      34  27  75 CALM      30.01S                  
ORANGE         FAIR      32  29  88 CALM      29.97S                  
SPRINGFIELD    CLEAR     33  30  89 CALM      29.95F                  
WESTFIELD      FAIR      32  29  88 CALM      29.96F                  
NORTH ADAMS    FAIR      31  29  92 CALM      29.95F                  
PITTSFIELD     FAIR      34  30  85 CALM      29.92F                  
$$
 
RIZALL-010300-
RHODE ISLAND
  
CITY           SKY/WX    TMP DP  RH WIND       PRES   REMARKS
PROVIDENCE     FAIR      34  26  72 NE6       30.00S WCI  29          
NEWPORT        FAIR      34  26  72 NE7       29.98S WCI  28          
BLOCK ISLAND   FAIR      36  30  79 NE12      29.99S WCI  28          
SMITHFIELD     FAIR      32  27  81 CALM      29.98F                  
WESTERLY       FAIR      38  30  73 NE5       29.99S                  
$$
 
CTZALL-010300-
CONNECTICUT
  
CITY           SKY/WX    TMP DP  RH WIND       PRES   REMARKS
BRADLEY INTL   FAIR      38  29  70 N6        29.96F                  
HARTFORD       FAIR      41  31  67 S6        29.97S                  
BRIDGEPORT     CLOUDY    42  32  67 SE8       29.98R                  
DANBURY        CLOUDY    41  33  73 SE10      29.96S                  
GROTON         FAIR      38  34  85 E9        29.98S WCI  31          
NEW HAVEN      FAIR      42  33  70 SE5       29.97F                  
CHESTER        FAIR      36  32  87 CALM      29.97S                  
MERIDEN        MOCLDY    40  31  70 S5        29.97F                  
WILLIMANTIC    FAIR      37  30  75 CALM      29.98R                  
OXFORD         CLOUDY    39  33  79 SE6       29.95F                  
$$

MEZ002-015-021-024-NHZ003-005-008-011-012-014-VTZ005-008-010300-
NORTHERN NEW ENGLAND
  
CITY           SKY/WX    TMP DP  RH WIND       PRES   REMARKS
PORTLAND ME    FAIR      34  28  79 W5        30.02F WCI  30          
BANGOR ME      CLOUDY    37  22  54 NE13      30.02S WCI  29          
CONCORD NH     FAIR      32  26  78 SE3       30.01F                  
MANCHESTER NH  FAIR      34  27  75 CALM      30.00F                  
NASHUA NH      FAIR      34  29  82 CALM      30.02F                  
PORTSMOUTH NH  CLEAR     31  27  84 NW3       30.00F                  
JAFFREY NH     FAIR      34  31  88 VRB3      29.95F                  
KEENE NH       CLOUDY    31  31 100 CALM      29.97F                  
BURLINGTON VT  FAIR      38  17  42 N5        30.00S                  
MT. WASHINGTON CLEAR     18  10  73 NW3         N/A                   
$$

NYZ052-076-010300-
EASTERN NEW YORK
  
CITY           SKY/WX    TMP DP  RH WIND       PRES   REMARKS
ALBANY         MOCLDY    39  31  72 CALM      29.97S                  
NEW YORK CITY  CLOUDY    43  34  70 SE7       29.97R                  
$$
 
ANZALL-010300-
MARINE OBSERVATIONS
  
STATION/POSITION TIME  TEMP    WIND        PRES    VSBY  WAVE
                       AIR SEA DIR/SP/G                  HT/PER
                 (UTC) (F)     (DEG/KT/KT) (MB)    (MI)  (FT/S)
BOSTON BUOY      0150   37 43   70/  8/ 10 1015.2F         6/ 9
BUZZARDS BAY     0100           50/ 16/ 20 1016.2F
NANTUCKET SOUND  0140                        N/A           2/ 3
MASS BAY-STELLWA 0104   37 42  100/ 10/ 12 1014.5S  1 7/8  7/ 8
ISLE OF SHOALS   0100   36     140/  2/  2 1016.4R
S OF BLOCK IS    0200      43                N/A           5/11
$$

......................KEY.........................
  SKY/WX - SKY CONDITION/PRESENT WEATHER
  TMP    - TEMPERATURE IN FAHRENHEIT
  DWPT   - DEWPOINT IN FAHRENHEIT
  RH     - RELATIVE HUMIDITY IN PERCENT
  WIND   - DIRECTION AND SPEED IN MPH
  PRES   - MEAN SEA LEVEL PRESSURE IN INCHES OF HG
  WCI    - WIND CHILL INDEX
  VSB    - VISIBILITY IN MILES
  HX     - HEAT INDEX
  TC     - TEMPERATURE IN CELSIUS
  VRB    - VARIABLE WIND DIRECTION
  N/A    - NOT AVAILABLE
  
      

Other recent Regional Weather Roundups

Wed Apr 1, 2:04am

Wed Apr 1, 1:04am

Wed Apr 1, 12:04am

Tue Mar 31, 11:04pm

Tue Mar 31, 9:04pm

Tue Mar 31, 8:04pm

Tue Mar 31, 7:04pm

Tue Mar 31, 6:04pm

Tue Mar 31, 4:04pm

Tue Mar 31, 3:04pm

Tue Mar 31, 2:04pm

Tue Mar 31, 1:04pm

Tue Mar 31, 12:05pm

Tue Mar 31, 11:04am

Tue Mar 31, 10:05am

Tue Mar 31, 9:04am

Tue Mar 31, 8:04am

Tue Mar 31, 7:05am

Tue Mar 31, 6:04am

Tue Mar 31, 5:04am

Tue Mar 31, 4:04am

Tue Mar 31, 3:04am

Tue Mar 31, 2:04am

Tue Mar 31, 1:04am

Tue Mar 31, 12:04am

Mon Mar 30, 11:04pm

Mon Mar 30, 10:04pm

Mon Mar 30, 9:05pm

Mon Mar 30, 8:04pm

Mon Mar 30, 7:04pm

Mon Mar 30, 6:04pm

Mon Mar 30, 5:05pm

Mon Mar 30, 4:04pm

Mon Mar 30, 3:04pm

Mon Mar 30, 2:04pm

Mon Mar 30, 1:04pm

Mon Mar 30, 12:04pm

Mon Mar 30, 11:04am

Mon Mar 30, 10:04am

Mon Mar 30, 9:04am

Mon Mar 30, 8:04am

Mon Mar 30, 7:04am

Mon Mar 30, 6:04am

Mon Mar 30, 5:04am

Mon Mar 30, 4:04am

Mon Mar 30, 3:05am

Mon Mar 30, 2:04am

Mon Mar 30, 1:04am

Mon Mar 30, 12:04am

Sun Mar 29, 11:04pm

Sun Mar 29, 10:05pm

Sun Mar 29, 9:04pm

Sun Mar 29, 8:04pm

Sun Mar 29, 7:04pm

Sun Mar 29, 6:04pm

Sun Mar 29, 5:05pm

Sun Mar 29, 4:04pm

Sun Mar 29, 3:04pm

Sun Mar 29, 2:04pm

Sun Mar 29, 1:05pm

Sun Mar 29, 12:04pm

Sun Mar 29, 11:04am

Sun Mar 29, 10:04am

Sun Mar 29, 9:04am

Sun Mar 29, 8:04am

Sun Mar 29, 7:04am

Sun Mar 29, 6:04am

Sun Mar 29, 5:04am

Sun Mar 29, 4:04am

Sun Mar 29, 3:04am

Meta data:

ID: 6945b269-8159-4c96-affa-957385256060
Link: https://api.weather.gov/products/6945b269-8159-4c96-affa-957385256060